Los Alamitos, CA

5:52 PM PDT on July 25, 2017 (GMT -0700)
Los Alamitos Army Air Field

Weather History for KSLI - September, 2013

Change the Weather History Date:

Thursday, September 19, 2013

  Actual Average Record
Temperature  
Mean Temperature 68 °F -  
Max Temperature 76 °F 79 °F 88 °F (2016)
Min Temperature 60 °F 64 °F 55 °F (2006)
Cooling Degree Days 2    
Growing Degree Days 18 (Base 50)    
Moisture  
Dew Point 62 °F    
Average Humidity 90    
Maximum Humidity 100    
Minimum Humidity 53    
Precipitation  
Precipitation 0.00 in - - ()
Sea Level Pressure  
Sea Level Pressure 29.80 in    
Wind  
Wind Speed 3 mph (SSW)    
Max Wind Speed 13 mph    
Max Gust Speed -    
Visibility 8 miles    
Events      
Averages and records for this station are not official NWS values.
T = Trace of Precipitation, MM = Missing Value Source: NWS Daily Summary

Daily Weather History Graph

Daily Weather History Graph

Search for Another Location

Airport or City:

Trip Planner

Search our weather history database for the weather conditions in past years. The results will help you decide how hot, cold, wet, or windy it might be!

Date:

Astronomy

Sep. 19, 2013 Rise Set
Actual Time 6:38 AM PDT 6:52 PM PDT
Civil Twilight 6:13 AM PDT 7:17 PM PDT
Nautical Twilight 5:44 AM PDT 7:46 PM PDT
Astronomical Twilight 5:14 AM PDT 8:16 PM PDT
Moon 6:57 PM PDT (9/19) 6:50 AM PDT (9/19)
Length of Visible Light 13h 04m
Length of Day
12h 14m
Full, 100% of the Moon is Illuminated
Sep 19
Full
Sep 26
Last Quarter
Oct 4
New
Oct 11
First Quarter
Oct 18
Full

Hourly Weather History & Observations

Time (PDT) Temp. Dew Point Humidity Pressure Visibility Wind Dir Wind Speed Gust Speed Precip Events Conditions
12:58 AM 61.7 °F 61.7 °F 100% 29.79 in 10.0 mi Calm Calm - N/A   Clear
1:58 AM 63.0 °F 63.0 °F 100% 29.79 in 10.0 mi ESE 3.5 mph - N/A   Clear
2:58 AM 61.2 °F 61.2 °F 100% 29.78 in 10.0 mi Calm Calm - N/A   Clear
3:43 AM 60.8 °F 60.8 °F 100% 29.77 in 2.5 mi Calm Calm - N/A   Clear
3:53 AM 60.8 °F 60.8 °F 100% 29.77 in 3.0 mi Calm Calm - N/A   Clear
3:58 AM 60.3 °F 60.3 °F 100% 29.78 in 3.0 mi Calm Calm - N/A   Clear
4:03 AM 60.8 °F 60.8 °F 100% 29.77 in 1.8 mi Calm Calm - N/A   Clear
4:08 AM 60.8 °F 60.8 °F 100% 29.77 in 2.0 mi Calm Calm - N/A   Clear
4:13 AM 60.8 °F 60.8 °F 100% 29.77 in 7.0 mi Calm Calm - N/A   Clear
4:58 AM 60.8 °F 60.8 °F 100% 29.78 in 6.0 mi Calm Calm - N/A   Clear
5:53 AM 60.8 °F 60.8 °F 100% 29.78 in 10.0 mi Variable 1.2 mph - N/A   Mostly Cloudy
5:58 AM 61.3 °F 61.3 °F 100% 29.79 in 10.0 mi SSE 2.3 mph - N/A   Mostly Cloudy
6:58 AM 63.9 °F 63.9 °F 100% 29.81 in 6.0 mi WSW 2.3 mph - N/A   Overcast
7:05 AM 64.4 °F 64.4 °F 100% 29.81 in 6.0 mi WSW 2.3 mph - N/A   Overcast
7:58 AM 65.1 °F 65.1 °F 100% 29.82 in 6.0 mi East 5.8 mph - N/A   Overcast
8:58 AM 66.0 °F 65.5 °F 98% 29.83 in 7.0 mi East 4.6 mph - N/A   Overcast
9:58 AM 67.6 °F 64.6 °F 90% 29.84 in 7.0 mi East 6.9 mph - N/A   Overcast
10:08 AM 68.0 °F 64.4 °F 88% 29.83 in 7.0 mi North 2.3 mph - N/A   Overcast
10:49 AM 69.8 °F 60.8 °F 73% 29.83 in 7.0 mi Variable 1.2 mph - N/A   Scattered Clouds
10:58 AM 70.9 °F 60.8 °F 70% 29.84 in 7.0 mi West 4.6 mph - N/A   Scattered Clouds
11:58 AM 75.4 °F 58.6 °F 56% 29.82 in 10.0 mi South 8.1 mph - N/A   Clear
12:58 PM 74.5 °F 57.9 °F 56% 29.81 in 10.0 mi SSW 8.1 mph - N/A   Clear
1:58 PM 75.9 °F 57.6 °F 53% 29.79 in 10.0 mi SSW 5.8 mph - N/A   Clear
2:58 PM 74.8 °F 57.7 °F 55% 29.79 in 10.0 mi SSW 9.2 mph - N/A   Clear
3:58 PM 73.4 °F 58.6 °F 60% 29.78 in 10.0 mi SSW 12.7 mph - N/A   Clear
4:58 PM 71.6 °F 60.4 °F 68% 29.78 in 10.0 mi SSW 10.4 mph - N/A   Partly Cloudy
5:58 PM 68.7 °F 64.9 °F 88% 29.78 in 10.0 mi SSW 10.4 mph - N/A   Scattered Clouds
6:59 PM 66.7 °F 65.3 °F 95% 29.79 in 10.0 mi SSW 8.1 mph - N/A   Scattered Clouds
8:01 PM 65.5 °F 65.1 °F 99% 29.81 in 10.0 mi SSW 5.8 mph - N/A   Partly Cloudy
8:53 PM 64.4 °F 64.4 °F 100% 29.82 in 10.0 mi SSW 3.5 mph - N/A   Mostly Cloudy
8:58 PM 64.9 °F 64.9 °F 100% 29.83 in 10.0 mi SSW 4.6 mph - N/A   Mostly Cloudy
9:58 PM 65.7 °F 65.7 °F 100% 29.84 in 10.0 mi South 4.6 mph - N/A   Overcast
10:27 PM 66.2 °F 66.2 °F 100% 29.83 in 10.0 mi South 4.6 mph - N/A   Overcast
10:58 PM 66.2 °F 65.7 °F 98% 29.84 in 10.0 mi South 3.5 mph - N/A   Overcast
11:58 PM 66.4 °F 65.8 °F 98% 29.84 in 10.0 mi South 3.5 mph - N/A   Overcast